Location: Chaumontel
(49.1247°N, 2.4324°E)
Time: 00:32:04
(UTC+00:00)

IRIDIUM 103 - Pass Details

Date: 18 May 2025
Orbit: 775 x 779 km, 86.4° (Epoch: 12 June)

Event Time Altitude Azimuth Distance (km) Brightness Sun altitude
Exits shadow 01:28:06 31° 199° (SSW) 1,332 5.0 -17.7°
Maximum altitude 01:30:35 70° 275° (W) 830 4.3 -17.5°
Drops below altitude 10° 01:35:50 10° 360° (N) 2,343 7.8 -17.1°
Sets 01:38:12 0° 3° (N) 3,275 8.8 -17.0°
